Joint Base Andrews

Airport
ICAO code: 
KADW
Summary
ICAO Region: 
NAM
Territory: 
Location: 
Prince George's County, Maryland,
Coordinates: 
Aerial View: 
38° 47' 47.473" N, 76° 53' 1.054" W
Airport LOS: 
Parallel Runway Operation
Airport WX: 
Cumulonimbus
Metar
Observation
KADW 241556Z AUTO 06004KT 10SM CLR 02/M07 A2991 RMK AO2 SLP138 T00181075 $
Station
Camp Springs / Andrews Air Force Base
Date/Time
2022-01-24 15:56:00
Wind direction
60°
Wind speed
04 kts
Lowest cloud amount
n/a
Temperature
1.8°C
Dew point
-7.5°C
Humidity
50%
Weather condition
n/a

Description

Joint Base Andrews is a United States military facility located in Prince George's County, Maryland, 10 km southeast of Washington, DC. Joint Base Andrews was established in 2009 as a merger of Andrews Air Force Base and Naval Air Facility Washington.

Climatology

Humid “subtropical” climate (Köppen climate classification Cfa) - characterized by hot, humid summers and cool winters. Significant amounts of precipitation occur in all seasons in most areas. Winter rainfall (and sometimes snowfall) is associated with large storms that the westerlies steer from west to east. Most summer rainfall occurs during thunderstorms and occasional tropical storms (hurricanes).

Runways

Designator Length Width Surface Rops
01L/19R 2835 61 CON Yes/Yes
01R/19L 2973 46 PEM Yes/Yes
Airport map: 
Aerial View: 

SKYbrary Partners:

Safety knowledge contributed by: